Weather History for Khon Kaen, Thailand

Change the Weather History Date:

Saturday, November 9, 2013

  Actual Average Record
Temperature  
Mean Temperature 80 °F -  
Max Temperature 89 °F 86 °F - ()
Min Temperature 71 °F 66 °F - ()
Cooling Degree Days 15    
Growing Degree Days 30 (Base 50)    
Moisture  
Dew Point 71 °F    
Average Humidity 75    
Maximum Humidity 100    
Minimum Humidity 40    
Precipitation  
Precipitation 0.00 in 0.02 in - ()
Sea Level Pressure  
Sea Level Pressure 29.84 in    
Wind  
Wind Speed 6 mph ()    
Max Wind Speed 86 mph    
Max Gust Speed -    
Visibility 5.7 miles    
Events      
T = Trace of Precipitation, MM = Missing Value Source: Averaged Metar Reports

Daily Weather History Graph

Daily Weather History Graph

Search for Another Location

Airport:

Trip Planner

Search our weather history database for the weather conditions in past years. The results will help you decide how hot, cold, wet, or windy it might be!

Date:

Astronomy

Nov. 09, 2013 Rise Set
Actual Time 6:09 AM ICT 5:35 PM ICT
Civil Twilight 5:46 AM ICT 5:58 PM ICT
Nautical Twilight 5:21 AM ICT 6:24 PM ICT
Astronomical Twilight 4:55 AM ICT 6:49 PM ICT
Moon 11:28 AM ICT (11/9) 11:21 PM ICT (11/9)
Length of Visible Light 12h 11m
Length of Day
11h 26m
Waxing Crescent, 38% of the Moon is Illuminated
Nov 9
Waxing Crescent
Nov 10
First Quarter
Nov 17
Full
Nov 26
Last Quarter
Dec 3
New

Hourly Weather History & Observations

Time (ICT) Temp. Heat Index Dew Point Humidity Pressure Visibility Wind Dir Wind Speed Gust Speed Precip Events Conditions
12:00 AM 77.0 °F - 71.6 °F 83% 29.86 in - ENE 3.5 mph - N/A   Clear
1:00 AM 76 °F - 70 °F 76% 29.83 in 6 mi ENE 3.5 mph - -   Clear
1:00 AM 75.2 °F - 71.6 °F 89% 29.86 in - ENE 3.5 mph - N/A   Clear
2:00 AM 71.6 °F - 71.6 °F 100% 29.83 in 5.0 mi NNW 3.5 mph - N/A   Unknown
4:00 AM 71.6 °F - 71.6 °F 100% 29.83 in 5.0 mi North 2.3 mph - N/A   Unknown
5:00 AM 71.6 °F - 69.8 °F 94% 29.83 in 5.0 mi North 3.5 mph - N/A   Unknown
6:00 AM 69.8 °F - 69.8 °F 100% 29.86 in 4.3 mi NNW 2.3 mph - N/A   Unknown
7:00 AM 72 °F - 69 °F 86% 29.87 in 4 mi NNW 3.5 mph - -   Mist
7:00 AM 71.6 °F - 71.6 °F 100% 29.89 in 4.3 mi NNW 4.6 mph - N/A   Unknown
8:00 AM 75.2 °F - 71.6 °F 89% 29.89 in 4.3 mi North 4.6 mph - N/A   Unknown
9:00 AM 80.6 °F 84.6 °F 71.6 °F 74% 29.92 in 5.6 mi NE 6.9 mph - N/A   Unknown
10:00 AM 84.2 °F 89.6 °F 71.6 °F 66% 29.92 in 6.2 mi NE 9.2 mph - N/A   Partly Cloudy
11:00 AM 86.0 °F 91.8 °F 71.6 °F 62% 29.89 in 6.2 mi NE 11.5 mph - N/A   Partly Cloudy
12:00 PM 87.8 °F 93.8 °F 71.6 °F 58% 29.86 in 6.2 mi NE 12.7 mph - N/A   Partly Cloudy
1:00 PM 89 °F - 68 °F 40% 29.80 in 6 mi ENE 4.6 mph - -   Partly Cloudy
1:00 PM 87.8 °F 93.8 °F 71.6 °F 58% 29.83 in 6.2 mi NE 10.4 mph - N/A   Mostly Cloudy
2:00 PM 87.8 °F 92.6 °F 69.8 °F 55% 29.80 in 6.2 mi ENE 5.8 mph - N/A   Mostly Cloudy
3:00 PM 89.6 °F 94.7 °F 69.8 °F 52% 29.80 in 6.2 mi NE 86.3 mph - N/A   Mostly Cloudy
4:00 PM 87.8 °F 92.6 °F 69.8 °F 55% 29.77 in 6.2 mi NNE 11.5 mph - N/A   Mostly Cloudy
5:00 PM 86.0 °F 91.8 °F 71.6 °F 62% 29.80 in 6.2 mi NE 6.9 mph - N/A   Mostly Cloudy
6:00 PM 82.4 °F 87.2 °F 71.6 °F 70% 29.80 in 6.2 mi NNE 5.8 mph - N/A   Mostly Cloudy
7:00 PM 83 °F - 71 °F 59% 29.80 in 6 mi NNE 2.3 mph - -   Scattered Clouds
7:00 PM 80.6 °F 84.6 °F 71.6 °F 74% 29.83 in 6.2 mi NNE 5.8 mph - N/A   Partly Cloudy
8:00 PM 78.8 °F - 71.6 °F 78% 29.83 in 6.2 mi North 4.6 mph - N/A   Mostly Cloudy
9:00 PM 77.0 °F - 71.6 °F 83% 29.86 in 6.2 mi North 4.6 mph - N/A   Mostly Cloudy
10:00 PM 77.0 °F - 71.6 °F 83% 29.86 in 6.2 mi North 5.8 mph - N/A   Mostly Cloudy
11:00 PM 75.2 °F - 71.6 °F 89% 29.86 in 6.2 mi North 8.1 mph - N/A   Mostly Cloudy